星链-30231 (STARLINK-30231 )

导读 | 星芒AI

STARLINK-30231 是 SpaceX Starlink 项目中的一颗低轨卫星,属于第三代星链卫星群。该卫星于2024年发射,旨在为全球提供高速、低延迟的互联网服务。它运行在约550公里高的近地轨道,配备先进通信设备和激光链路,以提升网络连接效率。作为 Starlink 计划的一部分,STARLINK-30231 有助于扩展覆盖范围,特别是在偏远和网络基础设施薄弱的地区。

基本信息
目录编号:
57514
目录名称:
STARLINK-30231
国际标识:
2023-113V
轨道中心:
EARTH
卫星名称:
星链-30231
卫星全名:
星链-30231 (STARLINK-30231 )
卫星状态:
在轨 (已飞行864 天)
发射日期:
2023-08-07 UTC
国别 :
美国 (US)
星等 :
--
轨道信息
数据来源 国际轨道数据 AOE轨道数据
星历时间 2025-12-18T15:05:34+0800
14小时前
查看轨道信息
2025-12-15T04:00:00+0800
4天前
查看轨道信息
半长轴 6937.252km 6937.229km
偏心率 0.0002089 0.0001034
轨道倾角 43.007° 43.006°
近地点辐角 266.522° 276.613°
升交点赤经 99.832° 118.648°
平近点角 93.538° 54.574°
近地点 557.667km 558.376km
远地点 560.567km 559.812km
周期 95.839分钟 95.838分钟
每日圈数 15.025247 15.025321
详细信息
固有亮度:
5
最大亮度:
0.3
卫星平台:
Starlink v2.0 mini
覆盖范围:
全球
运营商:
太空探索技术公司
运营商所在国:
美国
制造商(研发单位):
太空探索技术公司
制造商所在国:
美国
使用方式:
暂无
卫星简介
星链(Starlink)计划是由太空探索技术公司(SpaceX)提出的一个巨型低轨卫星互联网星座项目,计划在2019年至2024年间在太空搭建由约1.2万颗卫星组成的“星链”网络,其中1584颗将部署在地球上空550千米处的近地轨道,并从2020年开始工作。该卫星仍在工作。
2D轨道图
3D轨道图
轨道高度分析图
轨道倾角分析图
轨道综合分析图
查看轨道综合分析图